Voltar ao catálogo

FENGYUN 1C DEB

AtivoPO
NORAD 35154·DEBRIS·🇨🇳 China

Lançado May 10, 1999 de Taiyuan Satellite Launch Center

Loading…

Próximas Passagens (próximas 24 horas)

TLE

AtualizadoSource: Space-Track

Época: Sep 12, 2026, 04:58 UTC

1 35154U 99025DMJ 26255.20705385  .00000321  00000-0  15166-3 0  9991
2 35154  99.4568  39.4616 0177715 352.8071   7.0558 14.19376690684564

Acompanhe FENGYUN 1C DEB em tempo real com AllMySat

Download on the App Store